Regional Weather Roundup
Issued by NWS

Home | Current Version | Previous Version | Text Only | Print | Product List | Glossary Off
Versions: 1 2 3 4 5 6 7 8 9 10 11 12 13 14 15 16 17 18 19 20 21 22 23 24 25 26 27 28 29 30 31 32 33 34 35 36 37 38 39 40 41 42 43 44 45 46 47 48 49 50

000
ASUS43 KMKX 141320
RWRWI

WISCONSIN REGIONAL WEATHER ROUNDUP
NATIONAL WEATHER SERVICE MILWAUKEE/SULLIVAN WI
700 AM CST SUN FEB 14 2016

NOTE: "FAIR" INDICATES FEW OR NO CLOUDS BELOW 12,000 FEET WITH NO
SIGNIFICANT WEATHER AND/OR OBSTRUCTIONS TO VISIBILITY.

WIZ001-002-006>008-014>016-023>028-141400-
NORTHWEST WISCONSIN

CITY           SKY/WX    TMP DP  RH WIND       PRES   REMARKS
SUPERIOR ARPT  CLOUDY     0  -9  65 NE6       30.16F WCI -12
ASHLAND        CLOUDY   -16 -21  78 CALM      30.20F
HAYWARD        CLOUDY     1 -12  54 S10G16    30.14F WCI -15
SIREN          FLURRIES   7  -7  53 SE6       30.10F WCI  -3
CUMBERLAND     CLOUDY     3  -9  55 SE10      30.10F WCI -12
RICE LAKE      CLOUDY     4  -8  57 E10       30.14F WCI -11
CHETEK         CLOUDY     4  -8  58 MISG      30.15F
LADYSMITH      CLOUDY    -5 -14  65 E9        30.19F WCI -22
EAU CLAIRE     CLOUDY     3  -8  60 E8        30.16F WCI -10
MENOMONIE      CLOUDY     7  -4  58 E9        30.15F WCI  -6
NEW RICHMOND   FLURRIES   7  -4  61 SE9       30.10F WCI  -6
OSCEOLA        LGT SNOW   8   0  68 SE9       30.13F WCI  -5
$$

WIZ003>005-009-010-017-018-141400-
NORTH CENTRAL WISCONSIN

CITY           SKY/WX    TMP DP  RH WIND       PRES   REMARKS
MANITOWISH WTR PTCLDY   -18 -23  78 SE3       30.17F
ARBOR VITAE    CLOUDY    -9 -15  74 SE5       30.18F WCI -20
WOODRUFF       CLOUDY    -9 -15  74 SE5       30.18F WCI -20
RHINELANDER    CLOUDY   -17 -22  78 E5        30.20F WCI -30
EAGLE RIVER    CLOUDY   -21 -28  69 CALM      30.20F
LAND O LAKES   CLOUDY   -27 -33  70 CALM      30.20F
PHILLIPS       CLOUDY   -22 -28  75 CALM      30.16F
TOMAHAWK       CLOUDY   -24 -31  72 CALM      30.21F
MEDFORD        CLOUDY    -6 -13  69 SE6       30.17F WCI -19
MERRILL        CLOUDY   -20 -26  75 CALM      30.24F
$$

WIZ029-030-035-036-043>047-141400-
CENTRAL WISCONSIN

CITY           SKY/WX    TMP DP  RH WIND       PRES   REMARKS
WAUSAU         PTCLDY   -11 -17  75 SE5       30.23F WCI -23
MOSINEE        CLEAR     -6 -13  71 E6        30.24F WCI -18
MARSHFIELD     CLOUDY    -5 -14  65 E7        30.19F WCI -19
STEVENS POINT  CLOUDY   -13 -19  75 E3        30.26F
WAUPACA        CLOUDY   -13 -19  74 CALM      30.31F
WAUTOMA        CLOUDY   -16 -23  70 CALM      30.30F
WISC RAPIDS    CLOUDY    -6 -14  68 E8        30.26F WCI -21
CAMP DOUGLAS   CLOUDY     2  -4  74 E12       30.21F WCI -14
$$

WIZ011>013-019>022-031-037>040-048>050-141400-
NORTHEAST WISCONSIN

CITY           SKY/WX    TMP DP  RH WIND       PRES   REMARKS
ANTIGO         CLOUDY    -9 -15  74 SE7       30.23F WCI -24
SHAWANO        CLOUDY   -10 -15  77 CALM      30.34F
OCONTO         CLOUDY   -15 -19  81 CALM      30.37F
STURGEON BAY   CLOUDY    -4 -11  71 CALM      30.36F
GREEN BAY      CLOUDY   -12 -16  82 CALM      30.35F
MANITOWOC      CLOUDY    -5 -10  79 CALM      30.36F
APPLETON       PTCLDY    -2 -11  65 CALM      30.30F
CLINTONVILLE   CLOUDY   -13 -18  77 CALM      30.32F
OSHKOSH        CLOUDY    -6 -12  75 CALM      30.32F
$$

WIZ032>034-041-042-053>061-141400-
SOUTHWEST WISCONSIN

CITY           SKY/WX    TMP DP  RH WIND       PRES   REMARKS
LA CROSSE      CLOUDY    12  -1  56 SE8       30.19F WCI   0
SPARTA         CLOUDY     9  -2  61 E7        30.19F WCI  -2
VIROQUA        CLOUDY     9   0  68 SE14      30.13F WCI  -8
BOSCOBEL       CLOUDY    10   2  69 NE5       30.22F WCI   2
PRAIRIE DU CHI CLOUDY    14   7  74 E14       30.18F WCI  -1
PLATTEVILLE    CLOUDY    14   9  80 SE13      30.18F WCI  -1
$$

WIZ056-057-062-063-064-067-068-141400-
SOUTH CENTRAL WISCONSIN

CITY           SKY/WX    TMP DP  RH WIND       PRES   REMARKS
REEDSBURG      CLOUDY     5  -4  66 E6        30.22F WCI  -5
BARABOO/DELLS  CLOUDY     3  -5  69 E7        30.23F WCI  -9
LONE ROCK      CLOUDY    11   2  67 E14       30.22F WCI  -5
MINERAL POINT  FLURRIES  14   5  67 SE12      30.17F WCI   0
MADISON        CLOUDY     9  -1  64 SE9       30.26F WCI  -4
MIDDLETON      CLOUDY    12   2  64 SE10      30.24F WCI  -1
WATERTOWN      CLOUDY     7  -3  66 CALM      30.30F
MONROE         CLOUDY    12   5  73 E10       30.21F WCI  -1
JANESVILLE     CLOUDY    16   3  57 SE8       30.28F WCI   5
$$

WIZ051-052-058>065-066-070>072-141400-
SOUTHEAST WISCONSIN

CITY           SKY/WX    TMP DP  RH WIND       PRES   REMARKS
MILWAUKEE      CLOUDY    10  -2  58 S5        30.34F WCI   2
WAUKESHA       CLEAR      0  -8  71 CALM      30.33F
MILWAUKEE/TIMM CLEAR      1  -6  71 CALM      30.35F
RACINE         CLOUDY    11  -1  58 SW7       30.36F WCI   0
BURLINGTON     CLOUDY     3  -1  83 SE5       30.32F WCI  -7
KENOSHA        CLOUDY     8  -1  66 S7        30.34F WCI  -3
FOND DU LAC    CLOUDY    -3 -11  68 CALM      30.32F
SHEBOYGAN      CLOUDY    -2  -7  79 CALM      30.33F
WEST BEND      CLOUDY    -4  -9  77 CALM      30.33S
JUNEAU         CLOUDY     2  -7  67 E7        30.30F WCI -11
$$

LSZ147-162-141400-
LAKE SUPERIOR

STATION/POSITION TIME  TEMP    WIND        PRES    WAVE
                       AIR SEA DIR/SP/G            HT/PER
                 (UTC) (F)     (DEG/KT/KT) (MB)    (FT/S)
DEVILS ISLAND    1300    4     160/  8/ 10 1024.7F
$$

LMZ867-665-643>646-141400-
LAKE MICHIGAN

STATION/POSITION TIME  TEMP    WIND        PRES    WAVE
                       AIR SEA DIR/SP/G            HT/PER
                 (UTC) (F)     (DEG/KT/KT) (MB)    (FT/S)
CHAMBERS ISLAND  1240   -4     190/  2/  4 1027.8F
SISTER BAY       1219   -2        CALM       N/A
ALGOMA LAKESHORE 1041             CALM       N/A
KEWAUNEE LAKESHO 1200   -5     290/  5/  6 1027.8F
SHEBOYGAN LAKESH 1300    9     290/  3/  4 1029.5F
PORT WASHINGTON  1200    6     250/  3/  4 1029.1
MILWAUKEE LAKESH 1310   14     200/  9/ 11   N/A
KENOSHA   LAKESH 1300   14     190/  9/ 15 1027.8F
$$

TC  - TEMPERATURE IN CELSIUS
VSB - VISIBILITY IN STATUTE MILES
WCI - WIND CHILL INDEX
HX  - HEAT INDEX




USA.gov is the U.S. government's official web portal to all federal, state and local government web resources and services.